[Iaude] MPEC Y29: 2023 XU17 [a=1.47,e=0.35,i=8.8,H=25.1]

mpec at marsden.cfa.harvard.edu mpec at marsden.cfa.harvard.edu
Sun Dec 17 14:37:58 EST 2023


M.P.E.C. 2023-Y29                             Issued 2023 December 17, 19:36 UT

     The Minor Planet Electronic Circulars contain information on unusual
         minor planets, routine data on comets and natural satellites,
         and occasional editorial announcements.  They are published
    on behalf of Division F of the International Astronomical Union by the
          Minor Planet Center, Smithsonian Astrophysical Observatory,
                          Cambridge, MA 02138, U.S.A.
			  
             Prepared using the Tamkin Foundation Computer Network

                              MPC at CFA.HARVARD.EDU
            URL https://www.minorplanetcenter.net/    ISSN 1523-6714

                                   2023 XU17                                    


Observations:
     K23X17U* C2023 12 15.85242503 55 05.45 +13 47 15.8          20.5 RoEY029K88
     K23X17U  C2023 12 15.85688403 55 05.55 +13 46 37.0          20.5 RoEY029K88
     K23X17U KC2023 12 15.87108703 55 05.81 +13 44 31.9          20.5 RoEY029K88
     K23X17U KC2023 12 15.87437203 55 05.91 +13 44 04.2          20.6 RoEY029K88
     K23X17U KC2023 12 15.88445203 55 06.11 +13 42 35.6          20.8 RoEY029K88
     K23X17U bC2023 12 15.91542603 55 07.37 +13 38 08.9          20.4 GVEY029L01
     K23X17U bC2023 12 15.91740203 55 07.37 +13 37 51.1          20.3 GVEY029L01
     K23X17U bC2023 12 15.91937603 55 07.37 +13 37 33.7          20.5 GVEY029L01
     K23X17U bC2023 12 15.92143203 55 07.44 +13 37 15.6          20.6 GVEY029L01
     K23X17U bC2023 12 15.92356703 55 07.47 +13 36 57.7          20.2 GVEY029L01
     K23X17U KC2023 12 16.01530 03 55 10.12 +13 23 24.4          21.0 GVEY029204
     K23X17U KC2023 12 16.02874 03 55 10.54 +13 21 24.2                VEY029204
     K23X17U KC2023 12 16.27603 03 55 27.02 +12 45 04.6          20.5 RVEY029691
     K23X17U KC2023 12 16.28464 03 55 27.19 +12 43 47.2                VEY029691
     K23X17U KB2023 12 16.88410903 56 07.15 +11 11 09.2          20.0 GXEY029958
     K23X17U KB2023 12 16.88993403 56 07.21 +11 10 14.5          20.5 GXEY029958
     K23X17U KB2023 12 16.89576103 56 07.46 +11 09 19.4          19.7 GXEY029958
     K23X17U KC2023 12 17.76892 03 57 08.89 +08 46 58.2          20.0 GVEY029104
     K23X17U KC2023 12 17.79442 03 57 09.96 +08 42 41.6                VEY029104

Observer details:
104 San Marcello Pistoiese.  Observers P. Bacci, M. Maestripieri.  Measurer P.
    Bacci.  0.60-m f/4.0 reflector + CCD.
204 Schiaparelli Observatory.  Observers L. Buzzi, G. Galli.  0.84-m f/3.5
    reflector + CCD.
691 Steward Observatory, Kitt Peak-Spacewatch.  Observer J. V. Scotti.  0.9-m
    f/3 reflector + CCD.
958 Observatoire de Dax.  Observer P. Dupouy.  0.50-m f/4.5 Reflector + CMO.
K88 GINOP-KHK, Piszkesteto.  Observer K. Sarneczky.  0.60-m Schmidt + CCD.
L01 Visnjan Observatory, Tican.  Observer K. Korlevic.  1.0-m f/2.9 reflector
    + CCD.

Orbital elements:
2023 XU17                                                Earth MOID = 0.0486 AU
Epoch 2023 Sept. 13.0 TT = JDT 2460200.5                MPC                     
M 285.18437              (2000.0)            P               Q                  
n   0.55103235     Peri.  230.61953     -0.62450478     -0.76663134             
a   1.4735040      Node   258.67699     +0.75519166     -0.54399368             
e   0.3452143      Incl.    8.75411     +0.19919674     -0.34109715             
P   1.79           H   25.18          G   0.15           U   9                  
Residuals in seconds of arc
231215 K88  0.1+  0.3+    231215 L01  0.4-  0.2-    231216 958  0.2-  0.1-
231215 K88  0.2+  0.3+    231215 L01  0.0   0.2-    231216 958  1.5-  0.1+
231215 K88  0.3-  0.8-    231215 L01  0.2-  0.7+    231216 958  0.1-  0.1-
231215 K88  0.1+  0.2+    231216 204  0.1-  0.3+    231217 104  0.6+  0.2+
231215 K88  0.0   0.2-    231216 204  0.2+  0.0     231217 104  0.8+  0.1-
231215 L01  0.7+  0.3+    231216 691  0.0   1.4-
231215 L01  0.2+  0.2-    231216 691  0.5+  0.8-

Ephemeris:
2023 XU17                a,e,i = 1.47, 0.35, 9                   q = 0.9648
Date    TT    R. A. (2000) Decl.     Delta      r    Elong.  Phase     V
2023 11 17    03 52 07.3 +40 35 29   0.2078  1.1836   157.5    18.6    23.1
...
2023 12 02    03 50 34.9 +34 00 10   0.1294  1.1115   165.0    13.2    21.7
...
2023 12 10    03 51 33.1 +25 07 31   0.09528 1.0765   163.1    15.4    21.1
...
2023 12 16    03 55 12.8 +13 26 54   0.07446 1.0523   155.2    23.1    20.7
2023 12 17    03 56 12.7 +10 54 04   0.07152 1.0485   153.2    25.0    20.7
2023 12 18    03 57 20.9 +08 09 11   0.06877 1.0448   151.0    27.1    20.7
...
2023 12 24    04 07 45.3 -12 42 01   0.05697 1.0237   133.6    44.1    20.7
...
2024 01 01    04 36 19.5 -46 00 24   0.05738 0.9999   105.2    71.6    21.5
...
2024 01 16    08 01 03.3 -79 19 09   0.09350 0.9711    79.5    95.0    23.4

A. U. Tomatic                (C) Copyright 2023 MPC           M.P.E.C. 2023-Y29





More information about the Iaude mailing list